Location: Boiro
(42.6475°N, 8.8834°W)
Time: 22:50:59
(UTC+01:00)

Tiros 1 - Pass Details

Date: 14 December 2021
Orbit: 629 x 664 km, 48.4° (Epoch: 18 January)

Event Time Altitude Azimuth Distance (km) Brightness Sun altitude
Rises 15:31:35 0° 218° (SW) 2,903 12.1 18.4°
Reaches altitude 10° 15:34:00 10° 210° (SSW) 1,997 12.3 18.2°
Maximum altitude 15:38:15 39° 142° (SE) 949 8.5 17.8°
Drops below altitude 10° 15:42:33 10° 74° (ENE) 2,010 9.3 17.4°
Sets 15:44:59 0° 67° (ENE) 2,923 10.0 17.2°
